Flag for Saudi Arabia Weather past 2 weeks in Jeddah, Saudi Arabia

Now
93 °F

Sunny.


Feels Like: 99 °F
Forecast: 86 / 98 °F
Wind: 14 mph from North

Location: Jeddah King Abdul Aziz International Airport

Current Time: Jul 4, 2015 at 7:22:43 PM

Latest Report: Jul 4, 2015 at 7:00 PM


Visibility: 10 mi

Pressure: 29.68 "Hg

Humidity: 47%

Dew point: 70 °F

Location of JeddahLocation

Historic Weather in Jeddah — Graph

°F

Jeddah temperature yesterday

Maximum temperature yesterday: 95 °F (at 12:00 PM)
Minimum temperature yesterday: 82 °F (at 5:00 AM)
Average temperature yesterday: 89 °F

Past Weeks' High & Low Weather Summary

 TemperatureHumidityPressure
High104 °F (Jun 29, 1:00 PM)89% (Jun 24, 6:00 AM)29.80 "Hg (Jun 24, 6:00 AM)
Low73 °F (Jun 23, 6:00 AM)11% (Jun 28, 12:00 PM)29.62 "Hg (Jun 19, 6:00 PM)
Average88 °F51%29.72 "Hg
* Reported Jun 19 6:00 PM — Jul 4 6:00 PM, Jeddah, Weather by CustomWeather, © 2015

Note: Actual official high and low records may vary slightly from our data, if they occured in-between our weather recording intervals... More about our weather records

Advertising

Jeddah weather history for previous 24 hours

 ConditionsComfort  
Time TempWeatherWind HumidityBarometerVisibility
6:00 PM
Sat, Jul 4
93 °FSunny.14 mph47%29.68 "Hg10 mi
5:00 PM91 °FSunny.17 mph56%29.65 "Hg10 mi
4:00 PM93 °FSunny.17 mph53%29.68 "Hg10 mi
3:00 PM93 °FSunny.14 mph53%29.68 "Hg10 mi
2:00 PM93 °FSunny.12 mph53%29.68 "Hg10 mi
1:00 PM91 °FSunny.12 mph56%29.71 "Hg10 mi
12:00 PM93 °FSunny.13 mph59%29.71 "Hg10 mi
11:00 AM93 °FSunny.6 mph59%29.74 "Hg10 mi
10:00 AM91 °FSunny.12 mph63%29.71 "Hg10 mi
9:00 AM90 °FScattered clouds.7 mph59%29.71 "HgN/A
8:00 AM86 °FScattered clouds.6 mph70%29.71 "HgN/A
7:00 AM84 °FScattered clouds.3 mph79%29.71 "HgN/A
6:00 AM82 °FScattered clouds.No wind84%29.71 "HgN/A
5:00 AM84 °FPassing clouds.9 mph70%29.68 "HgN/A
4:00 AM84 °FPassing clouds.5 mph66%29.68 "HgN/A
3:00 AM86 °FPassing clouds.5 mph62%29.68 "HgN/A
2:00 AM86 °FPassing clouds.3 mph62%29.68 "HgN/A
1:00 AM86 °FClear.7 mph62%29.71 "Hg10 mi
12:00 AM88 °FClear.5 mph62%29.71 "Hg10 mi
11:00 PM
Fri, Jul 3
88 °FClear.5 mph62%29.74 "Hg10 mi
10:00 PM88 °FClear.5 mph62%29.74 "Hg10 mi
9:00 PM90 °FClear.9 mph55%29.74 "Hg10 mi
8:00 PM90 °FClear.12 mph52%29.71 "Hg10 mi
7:00 PM91 °FSunny.14 mph46%29.71 "Hg10 mi
Weather by CustomWeather, © 2015

See weather overviewHow to use our weather pages